Content
SEND FEEDBACK

Daily
Averages
Monthly
Summary
Mexico

LEONA VICARIO, QUINTANA ROO


Home > North America > Mexico > Quintana Roo
Elevation: 26 feet     Latitude: 20 59N     Longitude: 087 12W

WEATHER
 
SELECT A DAY
Number of Records: 163,905;   Date Range: 1/1/95 - 8/10/14
 
SHARE

PRINT THIS DATA

[ ← Previous Day ]
WEATHER ALMANAC - JANUARY 3, 2014
[ Next Day → ]
[ °C ]   °F
Weather ElementAverageHighLow
Temperature73.1 °F80.6 °F (9:45 am)69.8 °F (3:47 am)
Dewpoint69.4 °F71.6 °F (10:46 am)68 °F (4:46 am)
Humidity88.5 %100 % (3:47 am)69 % (8:47 am)
Barometer30.00 in30.06 in (9:45 pm)29.94 in (2:48 am)
Wind Speed7.3 mph16.1 mph (1:17 pm)
Wind Gust23 mph (5:49 pm)
Weather ElementAverage
Visibility5.5 mi
Wind DirectionENE (72.6 °)

Weather ElementTotal
Precipitation---
Cooling Degree Days10.2 (Base 65)
Growing Degree Days25.2 (Base 50)
Averaged from 27 records on January 3, 2014
WEATHER CONDITIONS BREAKOUT
WIND DIRECTION BREAKOUT
WEATHER BY HOUR - JANUARY 3, 2014
[ °C ]   °F
Local TimeTemperatureDewpointHumidityBarometerVisibilityWind DirectionWind SpeedGust SpeedPrecipitationEventsConditions
1:44 AM71.6 °F69.8 °F94 %29.98 in6.0 miCalmMostly Cloudy
2:48 AM71.6 °F69.8 °F94 %29.94 in6.0 miNNW (340°)5.8 mphMostly Cloudy
3:47 AM69.8 °F69.8 °F100 %29.98 in6.0 miCalmMostly Cloudy
4:46 AM69.8 °F68.0 °F94 %29.98 in6.0 miNNW (340°)5.8 mphMostly Cloudy
5:46 AM69.8 °F68.0 °F94 %29.97 in6.0 miCalmMostly Cloudy
6:45 AM69.8 °F68.0 °F94 %29.99 in7.0 miNorth (350°)5.8 mphScattered Clouds
7:46 AM73.4 °F69.8 °F88 %30.01 in7.0 miNNE (30°)3.5 mphMostly Cloudy
8:47 AM78.8 °F68.0 °F69 %30.01 in7.0 miNE (50°)9.2 mphScattered Clouds
9:45 AM80.6 °F69.8 °F70 %30.03 in7.0 miENE (60°)10.4 mphMostly Cloudy
10:46 AM80.6 °F71.6 °F74 %30.03 in7.0 miNE (50°)6.9 mphMostly Cloudy
11:43 AM73.4 °F71.6 °F94 %30.00 in6.0 miNE (40°)9.2 mphMostly Cloudy
12:45 PM75.2 °F71.6 °F89 %29.99 in6.0 miNNE (20°)4.6 mphOvercast
12:52 PM73.4 °F71.6 °F94 %29.99 in4.0 miNE (50°)9.2 mphRainRain
12:58 PM71.6 °F69.8 °F94 %29.99 in2.0 miNE (50°)8.1 mphRainHeavy Rain
1:17 PM71.6 °F69.8 °F94 %29.98 in0.5 miEast (90°)16.1 mphRainHeavy Rain
1:44 PM71.6 °F69.8 °F94 %29.98 in2.0 miNE (40°)6.9 mphRainRain
2:28 PM71.6 °F71.6 °F100 %29.98 in5.0 miNNE (30°)9.2 mphRainLight Rain
2:43 PM73.4 °F69.8 °F88 %29.96 in5.0 miNE (40°)9.2 mphRainLight Rain
3:40 PM73.4 °F69.8 °F88 %29.99 in6.0 miNE (40°)8.1 mphOvercast
4:40 PM73.4 °F69.8 °F88 %30.00 in6.0 miNE (40°)10.4 mphOvercast
5:49 PM71.6 °F68.0 °F88 %30.00 in5.0 miNE (40°)11.5 mph23.0 mphRainLight Rain
6:47 PM73.4 °F68.0 °F83 %30.03 in6.0 miNE (40°)10.4 mphOvercast
7:46 PM73.4 °F68.0 °F83 %30.04 in6.0 miNE (50°)8.1 mphMostly Cloudy
8:47 PM73.4 °F68.0 °F83 %30.05 in6.0 miNE (40°)9.2 mphMostly Cloudy
9:45 PM71.6 °F68.0 °F88 %30.06 in6.0 miNE (40°)8.1 mphRainLight Rain
10:46 PM71.6 °F68.0 °F88 %30.05 in6.0 miNE (50°)6.9 mphOvercast
11:47 PM73.4 °F68.0 °F83 %30.01 in6.0 miNE (40°)5.8 mphOvercast
Hourly data recorded from MMUN, located miles away from Leona Vicario, Quintana Roo







STORIES FROM OUR PARTNERS